Location: Casteldidone
(45.0667°N, 10.4000°E)
Time: 04:52:54
(UTC+00:00)

Daily predictions for brighter satellites

Satellite Brightness Start Highest point End
(mag) Time Altitude Azimuth Time Altitude Azimuth Time Altitude Azimuth
Okean 1 Rocket 4.4 00:09:30 38° NNE 00:09:30 38° NNE 00:12:14 10° NNE
SJ 16-02 2.7 00:09:53 36° NNE 00:09:53 36° NNE 00:12:35 10° NNE
Cosmos 2263 Rocket 3.7 00:14:58 24° E 00:14:58 24° E 00:19:03 10° NE
SL-16 R/B 2.4 00:09:02 10° NNW 00:13:48 63° NW 00:13:48 63° NW
Cosmos 2142 Rocket 4.4 00:17:47 81° ESE 00:17:56 82° E 00:24:23 10° N
Cosmos 1428 Rocket 4.4 00:12:44 10° N 00:18:53 76° W 00:18:53 76° W
Cosmos 1937 Rocket 4.2 00:27:08 46° E 00:27:08 46° E 00:31:41 10° NNE
SL-19 R/B 4.3 00:21:19 10° NNE 00:26:52 68° E 00:26:52 68° E
Cosmos 990 Rocket 4.3 00:29:47 62° NE 00:29:47 62° NE 00:34:12 10° NNE
Cosmos 2297 Rocket 3.2 00:28:55 35° WNW 00:29:21 36° NW 00:34:34 10° NNE
Cosmos 158 Rocket 4.4 00:25:35 10° NNW 00:29:59 59° NW 00:29:59 59° NW
ADEOS II 4.1 00:28:52 10° NE 00:32:26 18° E 00:33:36 17° ESE
Cosmos 1455 Rocket 4.2 00:35:30 39° ENE 00:35:30 39° ENE 00:38:56 10° NNE
ATLAS CENTAUR R/B 4.0 00:37:35 11° E 00:37:35 11° E 00:38:07 10° E
USA 229 DEB 3.4 00:36:45 74° SSE 00:37:08 77° SE 00:43:59 10° NE
USA 229 3.4 00:36:53 74° SSE 00:37:15 76° ESE 00:44:04 10° NE
Cosmos 2112 Rocket 4.3 00:32:34 10° NNW 00:36:46 58° NW 00:36:46 58° NW
UNK 4.4 00:38:59 53° ENE 00:38:59 53° ENE 00:43:19 10° N
Cosmos 1898 Rocket 3.6 00:43:57 75° NNE 00:43:57 75° NNE 00:48:42 10° NNE
Cosmos 2237 Rocket 4.3 00:39:50 10° WNW 00:41:12 14° WNW 00:41:12 14° WNW
NOSS 2-3 (C) 4.5 00:48:09 46° ENE 00:48:09 46° ENE 00:51:56 10° NE
GEOS 3 Rocket 4.2 00:42:19 10° NE 00:47:19 48° ESE 00:47:19 48° ESE
NOSS 3-1 (A) 3.3 00:48:36 66° ESE 00:48:36 66° ESE 00:54:45 10° NE
Cosmos 1892 Rocket 4.3 00:44:31 10° N 00:47:50 50° N 00:47:50 50° N
Meteor 1-24 Rocket 3.6 00:44:11 10° NNW 00:49:06 72° NW 00:49:06 72° NW
IRAS Rocket 4.2 00:49:56 69° ESE 00:50:31 76° ENE 00:56:09 10° NNW
Cosmos 1680 Rocket 4.3 00:47:52 10° NNW 00:51:28 39° WNW 00:51:28 39° WNW
Cosmos 1461 4.3 00:55:29 35° NW 00:55:29 35° NW 00:59:25 10° NNE
Cosmos 1603 4.1 00:49:39 10° NNW 00:55:21 62° ENE 00:57:17 40° ESE
Cosmos 1340 Rocket 3.7 01:07:07 47° NNE 01:07:07 47° NNE 01:10:02 10° NNE
CZ-2D R/B 2.0 01:02:01 10° NNE 01:07:33 86° ESE 01:08:00 76° S
Cosmos 1758 4.1 01:08:43 51° NE 01:08:43 51° NE 01:11:51 10° NNE
SL-16 R/B 2.4 01:09:25 63° SSW 01:10:24 76° WSW 01:16:41 10° NNW
Timation 1 Rocket 4.2 01:10:12 68° WSW 01:10:55 78° WNW 01:16:55 10° NNE
SL-24 R/B 4.3 01:12:55 82° SSE 01:13:08 88° E 01:18:28 10° N
Cosmos 1943 3.3 01:08:18 10° NNW 01:13:56 72° ENE 01:16:10 38° SE
Cosmos 1626 4.4 01:14:08 10° NNW 01:15:17 18° NW 01:15:17 18° NW
Cosmos 1655 Rocket 4.0 01:11:42 10° NNW 01:17:50 60° W 01:18:27 57° WSW
Cosmos 2227 Rocket 4.0 01:18:31 17° WNW 01:20:26 20° NW 01:24:32 10° N
Cosmos 2292 Rocket 4.3 01:14:44 10° NNW 01:21:35 64° W 01:22:07 60° WSW
Cosmos 1544 Rocket 3.6 01:22:37 76° NNW 01:22:37 76° NNW 01:26:48 10° N
Cosmos 1470 3.5 01:24:18 47° NNW 01:24:18 47° NNW 01:27:22 10° N
Cosmos 1953 2.9 01:23:54 51° E 01:23:54 51° E 01:27:46 10° NNE
IRS-1D 3.9 01:19:30 10° NNE 01:24:34 59° E 01:25:39 48° SSE
NPP 3.5 01:20:56 10° NNE 01:26:21 79° WNW 01:27:05 66° SW
AQUA 3.6 01:29:18 10° N 01:34:05 78° WNW 01:34:26 73° WSW
Atlas Centaur 2 4.1 01:38:02 18° SSE 01:38:02 18° SSE 01:41:29 10° ESE
Exosat Rocket 4.3 01:36:53 42° SW 01:39:40 70° WNW 01:45:42 10° NNE
Resurs 1-4 Rocket 2.4 01:35:49 10° N 01:40:53 49° WNW 01:41:36 45° W
Cosmos 1602 Rocket 3.4 01:39:33 10° N 01:43:55 85° E 01:44:26 69° SSE
Cosmos 2098 Rocket 4.3 01:39:52 10° NNW 01:45:22 48° W 01:46:33 43° WSW
Cosmos 2227 4.4 01:44:00 47° WSW 01:45:23 61° WNW 01:51:07 10° NNE
NOSS 2-3 (E) 4.2 01:44:49 43° WNW 01:45:31 47° NW 01:50:28 10° NNE
SJ 16-02 3.5 01:46:52 14° WNW 01:47:18 14° NW 01:49:40 10° NNW
IDEFIX/ARIANE 42P 4.1 01:44:58 10° NNE 01:49:35 31° E 01:53:20 14° SSE
Meteor 2-14 Rocket 4.3 01:43:45 10° N 01:49:51 83° W 01:52:41 34° S
NOSS 3-1 (C) 4.4 01:48:09 26° W 01:50:39 37° NW 01:56:42 10° NNE
Cosmos 1908 3.7 01:56:15 46° SE 01:57:03 58° E 02:00:55 10° NNE
Cosmos 1048 Rocket 3.9 01:52:04 10° NNW 01:57:16 83° ENE 02:01:22 17° SSE
Cosmos 2263 Rocket 2.5 01:56:40 40° WSW 01:58:11 52° WNW 02:03:39 10° NNE
Cosmos 2298 Rocket 4.0 01:57:57 47° SSW 01:59:31 80° WNW 02:04:53 10° NNE
IRS-P3 4.2 01:54:12 10° NNE 01:59:35 78° ESE 02:01:52 36° S
Cosmos 2228 4.0 01:59:31 24° SSE 02:01:44 44° E 02:05:56 10° NNE
Meteor 1-16 Rocket 4.1 02:01:58 37° S 02:04:14 89° E 02:09:53 10° N
Cosmos 372 Rocket 4.3 02:04:37 40° WSW 02:06:00 52° WNW 02:11:09 10° NNE
Meteor 1-28 Rocket 3.3 02:06:34 38° SSE 02:07:54 77° ENE 02:11:44 10° N
COBE Rocket 4.2 02:08:32 39° W 02:08:38 39° W 02:13:01 10° NNW
SL-08 R/B 3.4 02:05:26 22° SSE 02:08:43 87° ENE 02:13:41 10° NNW
ADEOS II 2.1 02:07:22 10° N 02:12:34 63° WNW 02:14:32 37° SW
Cosmos 1356 Rocket 4.5 02:10:31 20° SSE 02:12:55 41° E 02:16:48 10° NNE
Cosmos 1626 Rocket 4.3 02:09:19 10° NNW 02:13:03 34° W 02:13:03 34° W
Cosmos 2285 Rocket 3.9 02:10:59 34° SSW 02:13:57 78° WNW 02:20:17 10° NNE
Cosmos 1726 3.1 02:14:19 31° WNW 02:14:19 31° WNW 02:17:22 10° N
ATLAS CENTAUR R/B 1.3 02:13:46 51° WSW 02:14:35 67° NW 02:18:29 10° NNE
CZ-4B R/B 3.9 02:10:57 10° N 02:15:26 43° WNW 02:16:40 35° WSW
Cosmos 1300 4.3 02:14:37 13° SSE 02:17:25 31° E 02:20:50 10° NNE
Cosmos 1553 Rocket 3.9 02:15:29 23° S 02:19:29 85° E 02:25:39 10° N
Cosmos 1844 Rocket 3.2 02:17:42 22° S 02:21:09 55° ESE 02:26:36 10° NNE
ERS-2 4.4 02:18:54 10° SE 02:21:57 26° ENE 02:25:02 10° N
NOSS 8 (H) 4.2 02:24:24 56° S 02:24:51 67° SE 02:27:50 10° NE
Meteor 1-11 4.3 02:20:30 10° N 02:26:16 81° E 02:31:55 10° SSE
SL-08 ROCKET BODY 4.4 02:23:26 10° N 02:29:30 82° E 02:35:26 10° S
Cosmos 2084 4.1 02:28:47 31° W 02:30:28 47° NW 02:34:47 10° NNE
Cosmos 1745 Rocket 4.1 02:24:58 10° N 02:31:17 80° E 02:37:28 10° S
Lacrosse 5 rocket 4.3 02:31:38 10° SE 02:32:27 10° ESE 02:33:18 10° ESE
ARIANE 5 R/B 2.5 02:27:45 10° N 02:33:00 77° WNW 02:36:11 24° SSW
Cosmos 1758 Rocket 3.7 02:31:55 10° NNW 02:36:08 52° W 02:38:14 27° SSW
ERS-1 4.5 02:33:09 10° N 02:38:05 67° WNW 02:41:00 25° SSW
SL-08 R/B 4.5 02:34:15 10° NNW 02:40:26 65° W 02:46:37 10° S
Cosmos 494 Rocket 4.0 02:40:32 10° NNW 02:45:37 59° WSW 02:50:43 10° S
Cosmos 2058 Rocket 3.5 02:41:30 11° S 02:45:41 64° E 02:50:05 10° NNE
H-2A R/B 2.2 02:42:39 10° SSE 02:46:43 72° ENE 02:50:49 10° N
CZ-2D R/B 4.0 02:43:37 10° NNW 02:46:52 16° WNW 02:49:19 12° W
S3M 4.0 02:45:35 13° SSW 02:51:19 77° W 02:57:45 10° N
Cosmos 1703 4.2 02:48:06 10° NNW 02:51:35 30° W 02:52:42 25° WSW
CZ-2C R/B 3.7 02:49:15 10° NNE 02:53:30 35° E 02:57:49 10° SSE
Cosmos 1825 Rocket 3.9 02:50:34 10° NNW 02:54:39 42° W 02:57:30 18° SSW
SL-16 R/B 4.3 02:54:31 12° W 02:55:00 12° W 02:57:18 10° WNW
Landsat 5 3.4 02:51:40 10° SSE 02:55:39 83° ENE 02:59:50 10° NNW
Cosmos 1125 Rocket 4.0 02:54:00 21° SW 02:57:07 44° WNW 03:02:11 10° N
USA 215 3.3 02:51:54 10° NE 02:58:29 87° SE 03:03:50 17° SW
Cosmos 1953 4.3 02:59:36 13° W 03:00:32 14° WNW 03:02:44 10° NW
SL-24 R/B 4.4 02:57:37 10° S 03:03:01 69° WSW 03:07:38 10° NNW
CZ-4B R/B 3.7 03:01:55 10° SE 03:04:38 26° ENE 03:07:18 10° NNE
Cosmos 1892 4.2 03:01:17 10° N 03:04:55 39° ENE 03:08:30 10° SSE
Cosmos 1953 Rocket 3.8 03:01:51 10° NNW 03:06:10 49° W 03:10:27 10° SSW
CZ-2D R/B 4.0 03:06:27 10° N 03:10:11 38° WNW 03:12:51 17° SW
Cosmos 1709 Rocket 4.0 03:04:53 10° N 03:11:05 90° SSE 03:17:11 10° S
PAYLOAD A 4.3 03:10:47 10° NNE 03:16:04 71° ESE 03:21:08 10° S
USA 238 DEB 4.4 03:14:38 10° NW 03:21:49 67° NE 03:29:16 10° SE
USA 238 4.4 03:14:44 10° NW 03:21:55 66° NE 03:29:22 10° SE
Atlas Centaur 2 4.0 03:20:39 12° SW 03:25:10 24° S 03:31:02 10° SE
NOSS 2-2 (E) 3.7 03:22:45 14° WSW 03:25:37 48° NW 03:29:33 10° NNE
NOSS 2-2 (D) 3.3 03:23:29 14° SW 03:26:27 59° NW 03:30:21 10° NNE
CENTAUR R/B 4.1 03:20:15 10° NNW 03:28:03 55° NE 03:36:37 10° ESE
IDEFIX/ARIANE 42P 3.3 03:24:26 10° N 03:29:11 37° WNW 03:33:57 10° SW
USA 267 3.4 03:24:02 10° ESE 03:30:35 83° NE 03:37:09 10° NW
ADEOS 4.4 03:25:53 10° NNE 03:31:02 54° E 03:36:07 10° S
Cosmos 2082 Rocket 4.4 03:28:26 10° N 03:33:22 30° NE 03:38:15 10° ESE
MSX 4.2 03:29:35 10° N 03:35:09 51° WNW 03:40:42 10° SW
PSLV R/B 3.6 03:31:39 10° N 03:36:01 73° WNW 03:40:20 10° SSW
COSMOS 2406 3.6 03:32:32 10° NNW 03:38:14 70° ENE 03:43:53 10° SSE
Cosmos 1825 3.7 03:35:58 10° N 03:39:33 40° ENE 03:43:07 10° SSE
Cosmos 2315 Rocket 4.1 03:34:44 10° SSW 03:41:01 65° W 03:47:23 10° N
ADEOS Rocket 3.9 03:33:19 10° SSE 03:41:01 75° ENE 03:48:45 10° N
Cosmos 1844 4.3 03:37:45 10° SW 03:43:18 45° WNW 03:48:49 10° NNE
Cosmos 2263 Rocket 4.3 03:41:40 10° WNW 03:43:30 11° NW 03:45:21 10° NNW
CZ-2C R/B 4.1 03:45:43 10° NNW 03:48:44 23° WNW 03:51:41 10° WSW
Cosmos 1455 2.4 03:45:17 10° S 03:49:08 78° E 03:53:02 10° NNE
Cosmos 2084 Rocket 4.3 03:45:38 10° NNW 03:50:02 59° NE 03:54:30 10° SE
deb Chang Zheng 4 3.6 03:46:08 10° NNE 03:50:31 85° WNW 03:54:53 10° SSW
Cosmos 2151 4.5 03:46:49 10° N 03:50:53 43° ENE 03:54:57 10° SSE
